Omak, WA

5:02 PM PST on December 11, 2017 (GMT -0800)
Omak

Weather History for KOMK - September, 2013

Change the Weather History Date:

Saturday, September 21, 2013

  Actual Average Record
Temperature  
Mean Temperature 63 °F 60 °F  
Max Temperature 77 °F 76 °F 90 °F (1939)
Min Temperature 48 °F 46 °F 31 °F (1932)
Degree Days  
Heating Degree Days 2 5  
Month to date heating degree days 29 66  
Since 1 July heating degree days 29 97  
Cooling Degree Days 0 1  
Month to date cooling degree days 128 53  
Year to date cooling degree days 814 659  
Growing Degree Days 12 (Base 50)    
Moisture  
Dew Point 44 °F    
Average Humidity 56    
Maximum Humidity 83    
Minimum Humidity 29    
Precipitation  
Precipitation 0.01 in 0.02 in 0.11 in (1964)
Month to date precipitation 0.93 0.38  
Year to date precipitation 8.35 9.66  
Sea Level Pressure  
Sea Level Pressure 29.58 in    
Wind  
Wind Speed 8 mph (SSW)    
Max Wind Speed 20 mph    
Max Gust Speed 25 mph    
Visibility 10 miles    
Events Rain    
T = Trace of Precipitation, MM = Missing Value Source: NWS Daily Summary

Daily Weather History Graph

Daily Weather History Graph

Search for Another Location

Airport or City:

Trip Planner

Search our weather history database for the weather conditions in past years. The results will help you decide how hot, cold, wet, or windy it might be!

Date:

Astronomy

Sep. 21, 2013 Rise Set
Actual Time 6:43 AM PDT 6:57 PM PDT
Civil Twilight 6:12 AM PDT 7:28 PM PDT
Nautical Twilight 5:35 AM PDT 8:05 PM PDT
Astronomical Twilight 4:57 AM PDT 8:43 PM PDT
Moon 7:54 PM PDT (9/21) 9:22 AM PDT (9/21)
Length of Visible Light 13h 16m
Length of Day
12h 13m
Waning Gibbous, 94% of the Moon is Illuminated
Sep 21
Waning Gibbous
Sep 26
Last Quarter
Oct 4
New
Oct 11
First Quarter
Oct 18
Full

Hourly Weather History & Observations

Time (PDT) Temp. Dew Point Humidity Pressure Visibility Wind Dir Wind Speed Gust Speed Precip Events Conditions
12:53 AM 57.9 °F 44.1 °F 60% 29.57 in 10.0 mi Variable 3.5 mph - N/A   Partly Cloudy
1:53 AM 55.9 °F 44.1 °F 64% 29.55 in 10.0 mi West 4.6 mph - N/A   Mostly Cloudy
2:53 AM 57.9 °F 45.0 °F 62% 29.57 in 10.0 mi SSE 3.5 mph - N/A   Overcast
3:53 AM 55.0 °F 46.9 °F 74% 29.55 in 10.0 mi WNW 6.9 mph - 0.00 in Rain Light Rain
4:53 AM 55.9 °F 48.9 °F 77% 29.57 in 10.0 mi SE 5.8 mph - 0.00 in Rain Light Rain
5:53 AM 55.0 °F 48.9 °F 80% 29.57 in 10.0 mi NNW 4.6 mph - 0.00 in   Overcast
6:53 AM 54.0 °F 48.9 °F 83% 29.58 in 10.0 mi WNW 4.6 mph - 0.01 in   Mostly Cloudy
7:53 AM 53.1 °F 48.0 °F 83% 29.60 in 10.0 mi Calm Calm - N/A   Clear
8:53 AM 59.0 °F 50.0 °F 72% 29.62 in 10.0 mi West 3.5 mph - N/A   Clear
9:53 AM 64.9 °F 48.9 °F 56% 29.62 in 10.0 mi South 6.9 mph - N/A   Clear
10:53 AM 69.1 °F 46.9 °F 45% 29.61 in 10.0 mi SSE 12.7 mph - N/A   Clear
11:53 AM 71.1 °F 46.9 °F 42% 29.60 in 10.0 mi SSE 15.0 mph - N/A   Clear
12:53 PM 73.0 °F 48.0 °F 41% 29.59 in 10.0 mi SE 13.8 mph - N/A   Clear
1:53 PM 73.9 °F 46.0 °F 37% 29.58 in 10.0 mi SSE 18.4 mph 25.3 mph N/A   Mostly Cloudy
2:53 PM 73.0 °F 44.1 °F 35% 29.57 in 10.0 mi SSE 12.7 mph - N/A   Partly Cloudy
3:53 PM 72.0 °F 44.1 °F 37% 29.57 in 10.0 mi WNW 17.3 mph 24.2 mph N/A   Scattered Clouds
4:53 PM 73.9 °F 39.0 °F 28% 29.56 in 10.0 mi Variable 4.6 mph - N/A   Clear
5:53 PM 70.0 °F 37.9 °F 31% 29.56 in 10.0 mi South 5.8 mph - N/A   Partly Cloudy
6:53 PM 66.0 °F 37.9 °F 36% 29.57 in 10.0 mi SSE 5.8 mph - N/A   Partly Cloudy
7:53 PM 63.0 °F 37.0 °F 38% 29.60 in 10.0 mi South 8.1 mph - N/A   Partly Cloudy
8:53 PM 57.0 °F 37.0 °F 47% 29.60 in 10.0 mi Variable 3.5 mph - N/A   Partly Cloudy
9:53 PM 52.0 °F 42.1 °F 69% 29.60 in 10.0 mi North 3.5 mph - N/A   Clear
10:53 PM 53.1 °F 42.1 °F 66% 29.62 in 10.0 mi WNW 4.6 mph - N/A   Clear
11:53 PM 50.0 °F 42.1 °F 74% 29.61 in 10.0 mi WNW 9.2 mph - N/A   Clear